Regional Weather Roundup
Issued by NWS

Home | Current Version | Previous Version | Text Only | Print | Product List | Glossary On
Versions: 1 2 3 4 5 6 7 8 9 10 11 12 13 14 15 16 17 18 19 20 21 22 23 24 25 26 27 28 29 30 31 32 33 34 35 36 37 38 39 40 41 42 43 44 45 46 47 48 49 50
000
ASUS44 KMEG 240210
RWRTN
TENNESSEE HOURLY STATE WEATHER ROUNDUP
NATIONAL WEATHER SERVICE MEMPHIS TN
900 PM CDT THU MAR 23 2017

TNZ002-004-019-021-049-052-054-088>092-240300-
WEST TENNESSEE

CITY           SKY/WX    TMP DP  RH WIND       PRES   REMARKS
MEMPHIS INTL   CLEAR     74  52  46 SE10      30.11R
NWS MEMPHIS      N/A     72 N/A N/A MISG        N/A
JACKSON        CLEAR     70  49  47 SE6       30.14S
DYERSBURG      CLEAR     68  50  52 SE6       30.12S
SOMERVILLE     CLEAR     72  52  49 VRB5      30.12S
BOLIVAR        CLEAR     68  52  56 SE5       30.14S
PARIS          CLEAR     63  45  51 SE6       30.16R
HUNTINGDON     PTCLDY    63  48  59 CALM      30.15R
SAVANNAH       CLEAR     68  52  56 S5        30.17R
$$

TNZ008-025-027-028-033-062-065-066-240300-
NORTH MIDDLE TENNESSEE

CITY           SKY/WX    TMP DP  RH WIND       PRES   REMARKS
NASHVILLE      CLEAR     64  44  48 SE9       30.23R
PORTLAND       PTCLDY    61  43  51 SE8       30.22R
CLARKSVILLE    CLEAR     57  43  59 SE8       30.18R
SMYRNA         CLEAR     60  45  57 SE5       30.24R
COOKEVILLE     MOCLDY    59  39  47 S9        30.27R
GALLATIN       MOCLDY    61  43  51 SE5       30.26R
CROSSVILLE     CLEAR     54  36  50 S10       30.32R
$$

TNZ061-075-076-078-094-096-097-240300-
SOUTH MIDDLE TENNESSEE

CITY           SKY/WX    TMP DP  RH WIND       PRES   REMARKS
FAYETTEVILLE   PTCLDY    63  46  55 SE12      30.26R
TULLAHOMA      CLEAR     61  37  41 SE13      30.27S
WINCHESTER     CLEAR     61  39  44 SE14      30.28R
MCMINNVILLE    CLEAR     59  39  47 CALM      30.27R
COLUMBIA       CLEAR     64  45  48 SE6       30.20R
SHELBYVILLE    CLEAR     64  45  48 SE10      30.25S
$$

TNZ017-018-042-046-047-240300-
NORTHEAST TENNESSEE

CITY           SKY/WX    TMP DP  RH WIND       PRES   REMARKS
TRI CITIES     PTCLDY    55  25  31 SE6       30.37R
ELIZABETHTON   CLEAR     52  25  35 E7        30.39R
$$

TNZ012-013-036-069-073-074-240300-
CENTRAL EAST TENNESSEE

CITY           SKY/WX    TMP DP  RH WIND       PRES   REMARKS
KNOXVILLE      MOCLDY    59  38  45 W9        30.32R
OAK RIDGE      CLEAR     61  36  39 VRB3      30.35R
DOWNTOWN KNOXV PTCLDY    54  45  71 CALM      30.33R
GATLINBURG     CLOUDY    54  39  58 CALM      30.32R
MORRISTOWN     MOCLDY    55  32  41 CALM      30.33R
JACKSBORO      MOCLDY    57  36  44 SE3       30.34R
$$

TNZ083-085-099-240300-
SOUTHEAST TENNESSEE

CITY           SKY/WX    TMP DP  RH WIND       PRES   REMARKS
CHATTANOOGA    CLEAR     59  34  39 S7        30.35R
$$

SKY/WX REPORTED AS FAIR MEANS FEW OR NO CLOUDS BELOW
12 THOUSAND FEET.




USA.gov is the U.S. government's official web portal to all federal, state and local government web resources and services.